Location: Piolenc
(44.1794°N, 4.7641°E)
Time: 00:59:39
(UTC+00:00)

Cosmos 1441 Rocket - Pass Details

Date: 27 January 2021
Orbit: 495 x 540 km, 81.1° (Epoch: 27 February)

Event Time Altitude Azimuth Distance (km) Brightness Sun altitude
Rises 06:04:20 0° 354° (N) 2,696 6.6 -10.9°
Reaches altitude 10° 06:06:33 10° 359° (N) 1,795 5.8 -10.5°
Maximum altitude 06:10:26 53° 77° (ENE) 655 4.1 -9.8°
Drops below altitude 10° 06:14:13 10° 155° (SSE) 1,756 6.5 -9.1°
Sets 06:16:22 0° 160° (SSE) 2,631 7.4 -8.8°
